| time (UTC) | temp C | wind direction | speed KPH | gust KPH | rain 1hr cm | rain 24hr cm | rain mn cm | humidity % | barometer mb |
| 20260902124211 | 15 | 151 | 4.8 | 14.5 | 0.00 | 0.36 | 0.36 | 96 | 1017.4 |
| 20260902123503 | 15 | 147 | 4.8 | 17.7 | 0.00 | 0.36 | 0.36 | 96 | 1017.4 |
| 20260902123003 | 15 | 143 | 4.8 | 17.7 | 0.00 | 0.36 | 0.36 | 96 | 1017.4 |
| 20260902122503 | 15 | 142 | 6.4 | 17.7 | 0.00 | 0.36 | 0.36 | 96 | 1017.4 |
| 20260902122211 | 15 | 143 | 8.0 | 17.7 | 0.00 | 0.36 | 0.36 | 95 | 1017.4 |
| 20260902121710 | 15 | 143 | 6.4 | 14.5 | 0.00 | 0.36 | 0.36 | 95 | 1017.4 |
| 20260902121003 | 15 | 155 | 4.8 | 11.3 | 0.00 | 0.36 | 0.36 | 95 | 1017.4 |
| 20260902120503 | 15 | 156 | 4.8 | 12.9 | 0.00 | 0.36 | 0.36 | 94 | 1017.4 |
| 20260902120004 | 15 | 158 | 4.8 | 12.9 | 0.00 | 0.36 | 0.36 | 93 | 1017.4 |
| 20260902115711 | 15 | 152 | 3.2 | 11.3 | 0.00 | 0.36 | 0.36 | 93 | 1017.4 |
| 20260902115003 | 15 | 157 | 3.2 | 11.3 | 0.00 | 0.36 | 0.36 | 94 | 1017.4 |
| 20260902114711 | 15 | 160 | 3.2 | 11.3 | 0.00 | 0.36 | 0.36 | 94 | 1017.4 |
| 20260902114211 | 15 | 159 | 3.2 | 8.0 | 0.00 | 0.36 | 0.36 | 94 | 1017.4 |
| 20260902113503 | 15 | 183 | 3.2 | 8.0 | 0.00 | 0.36 | 0.36 | 94 | 1017.4 |
| 20260902113003 | 15 | 182 | 4.8 | 12.9 | 0.00 | 0.36 | 0.36 | 94 | 1017.4 |
| 20260902112711 | 15 | 175 | 4.8 | 12.9 | 0.00 | 0.36 | 0.36 | 94 | 1017.4 |
| 20260902112210 | 15 | 180 | 4.8 | 12.9 | 0.00 | 0.36 | 0.36 | 94 | 1017.4 |
| 20260902111503 | 15 | 185 | 4.8 | 12.9 | 0.00 | 0.36 | 0.36 | 94 | 1017.4 |
| 20260902111003 | 15 | 188 | 4.8 | 12.9 | 0.00 | 0.36 | 0.36 | 92 | 1017.4 |
| 20260902110503 | 16 | 197 | 4.8 | 11.3 | 0.00 | 0.36 | 0.36 | 91 | 1017.4 |
| 20260902110007 | 16 | 194 | 4.8 | 11.3 | 0.00 | 0.36 | 0.36 | 91 | 1017.4 |
| 20260902105504 | 15 | 182 | 3.2 | 11.3 | 0.00 | 0.36 | 0.36 | 92 | 1017.4 |
| 20260902105004 | 15 | 173 | 3.2 | 11.3 | 0.00 | 0.36 | 0.36 | 93 | 1017.4 |
| 20260902104711 | 15 | 167 | 4.8 | 11.3 | 0.00 | 0.36 | 0.36 | 92 | 1017.4 |
| 20260902104003 | 15 | 172 | 4.8 | 11.3 | 0.00 | 0.36 | 0.36 | 93 | 1017.4 |
| 20260902103503 | 15 | 166 | 4.8 | 12.9 | 0.00 | 0.36 | 0.36 | 94 | 1017.4 |
| 20260902103004 | 15 | 163 | 4.8 | 12.9 | 0.00 | 0.36 | 0.36 | 94 | 1017.4 |
| 20260902102503 | 15 | 160 | 4.8 | 12.9 | 0.03 | 0.36 | 0.36 | 96 | 1017.4 |
| 20260902102003 | 15 | 150 | 3.2 | 12.9 | 0.03 | 0.36 | 0.36 | 96 | 1017.4 |
| 20260902101711 | 15 | 140 | 3.2 | 9.7 | 0.03 | 0.36 | 0.36 | 97 | 1017.4 |
| 20260902101211 | 15 | 159 | 3.2 | 9.7 | 0.05 | 0.36 | 0.36 | 97 | 1017.4 |
| 20260902100503 | 14 | 151 | 4.8 | 14.5 | 0.08 | 0.36 | 0.36 | 97 | 1017.4 |
| 20260902100004 | 14 | 140 | 4.8 | 9.7 | 0.08 | 0.36 | 0.36 | 97 | 1017.4 |
| 20260902095503 | 14 | 145 | 3.2 | 14.5 | 0.08 | 0.36 | 0.36 | 98 | 1017.4 |
| 20260902095210 | 14 | 145 | 4.8 | 14.5 | 0.08 | 0.36 | 0.36 | 97 | 1017.4 |
| 20260902094711 | 14 | 142 | 4.8 | 14.5 | 0.08 | 0.36 | 0.36 | 98 | 1017.4 |
| 20260902094003 | 13 | 141 | 4.8 | 14.5 | 0.08 | 0.36 | 0.36 | 98 | 1017.4 |
| 20260902093711 | 13 | 137 | 4.8 | 14.5 | 0.08 | 0.36 | 0.36 | 98 | 1017.4 |
| 20260902093003 | 13 | 135 | 3.2 | 11.3 | 0.10 | 0.33 | 0.33 | 98 | 1017.4 |
| 20260902092503 | 13 | 145 | 3.2 | 9.7 | 0.10 | 0.33 | 0.33 | 98 | 1017.4 |
| 20260902092004 | 13 | 155 | 3.2 | 8.0 | 0.10 | 0.33 | 0.33 | 98 | 1017.4 |
| 20260902091504 | 13 | 152 | 3.2 | 9.7 | 0.08 | 0.30 | 0.30 | 98 | 1017.4 |
| 20260902091003 | 13 | 155 | 3.2 | 9.7 | 0.05 | 0.28 | 0.28 | 98 | 1017.4 |